When you browse on this site, cookies collect data to enhance your experience and personalize the content and advertising you see.
Visit our Privacy Policy to learn more. By continuing to use the site, you agree to this use of cookies and data.
  • In Hungary
  • List of Countries
  • For 7 days
  • Water Temperature
  • Satellite Maps
  • Weather Map
  • News
  • Weather Widgets
  • user-avatar
    Login

    Hourly Weather Nizhnekaryshevo

    Today, 22 January, Tuesday

    Time Temperature Precipitation Wind Pressure Humidity
    00:00 -17°C° 0.5 mm 7 mps 745 mmHg 93%
    01:00 -17°C° 0.5 mm 7 mps 745 mmHg 93%
    02:00 -15°C° 0.3 mm 7 mps 744 mmHg 92%
    03:00 -15°C° 0.3 mm 7 mps 744 mmHg 92%
    04:00 -15°C° 0 mm 6 mps 743 mmHg 92%
    05:00 -15°C° 0.2 mm 6 mps 742 mmHg 92%
    06:00 -14°C° 0.2 mm 5 mps 742 mmHg 92%
    07:00 -14°C° 0.2 mm 5 mps 742 mmHg 92%
    08:00 -13°C° 0.1 mm 5 mps 741 mmHg 93%
    09:00 -12°C° 0.1 mm 4 mps 741 mmHg 93%
    10:00 -12°C° 0 mm 4 mps 741 mmHg 93%
    11:00 -12°C° 0.1 mm 4 mps 741 mmHg 93%
    12:00 -12°C° 0.1 mm 3 mps 742 mmHg 92%
    13:00 -10°C° 0.1 mm 3 mps 742 mmHg 92%
    14:00 -12°C° 0 mm 3 mps 742 mmHg 93%
    15:00 -13°C° 0 mm 3 mps 742 mmHg 94%
    16:00 -13°C° 0 mm 2 mps 743 mmHg 96%
    17:00 -15°C° 0 mm 3 mps 743 mmHg 96%
    18:00 -16°C° 0 mm 3 mps 744 mmHg 96%
    19:00 -16°C° 0 mm 3 mps 744 mmHg 97%
    20:00 -18°C° 0 mm 3 mps 745 mmHg 97%
    21:00 -19°C° 0 mm 3 mps 745 mmHg 98%
    22:00 -22°C° 0 mm 3 mps 746 mmHg 99%
    23:00 -23°C° 0 mm 3 mps 746 mmHg 99%

    Tomorrow, 23 January, Wednesday

    Time Temperature Precipitation Wind Pressure Humidity
    00:00 -24°C° 0 mm 3 mps 746 mmHg 99%
    01:00 -25°C° 0 mm 3 mps 747 mmHg 99%
    02:00 -26°C° 0 mm 3 mps 747 mmHg 99%
    03:00 -26°C° 0 mm 3 mps 748 mmHg 99%
    04:00 -27°C° 0 mm 3 mps 748 mmHg 99%
    05:00 -27°C° 0 mm 3 mps 749 mmHg 99%
    06:00 -26°C° 0 mm 2 mps 749 mmHg 98%
    07:00 -27°C° 0 mm 2 mps 750 mmHg 98%
    08:00 -26°C° 0 mm 2 mps 750 mmHg 98%
    09:00 -26°C° 0 mm 2 mps 751 mmHg 98%
    10:00 -26°C° 0 mm 2 mps 751 mmHg 98%
    11:00 -25°C° 0 mm 2 mps 751 mmHg 97%
    12:00 -25°C° 0 mm 3 mps 752 mmHg 97%
    13:00 -25°C° 0 mm 3 mps 752 mmHg 97%
    14:00 -24°C° 0 mm 2 mps 752 mmHg 97%
    15:00 -25°C° 0 mm 2 mps 753 mmHg 97%
    16:00 -25°C° 0 mm 2 mps 753 mmHg 98%
    17:00 -25°C° 0 mm 2 mps 753 mmHg 98%
    18:00 -26°C° 0 mm 2 mps 754 mmHg 98%
    19:00 -26°C° 0 mm 2 mps 754 mmHg 98%
    20:00 -27°C° 0 mm 2 mps 755 mmHg 98%
    21:00 -27°C° 0 mm 2 mps 755 mmHg 98%
    22:00 -27°C° 0 mm 2 mps 755 mmHg 98%
    23:00 -27°C° 0 mm 2 mps 756 mmHg 98%

    Day after tomorrow, 24 January, Thursday

    Time Temperature Precipitation Wind Pressure Humidity
    00:00 -27°C° 0 mm 2 mps 756 mmHg 98%
    01:00 -28°C° 0 mm 2 mps 757 mmHg 98%
    02:00 -28°C° 0 mm 2 mps 757 mmHg 98%
    03:00 -28°C° 0 mm 2 mps 757 mmHg 98%
    04:00 -28°C° 0 mm 2 mps 758 mmHg 98%
    05:00 -28°C° 0 mm 2 mps 758 mmHg 98%
    06:00 -28°C° 0 mm 2 mps 758 mmHg 98%
    07:00 -28°C° 0 mm 2 mps 759 mmHg 98%
    08:00 -29°C° 0 mm 3 mps 759 mmHg 98%
    09:00 -29°C° 0 mm 3 mps 759 mmHg 98%
    10:00 -27°C° 0 mm 3 mps 760 mmHg 97%
    11:00 -26°C° 0 mm 3 mps 760 mmHg 97%
    12:00 -25°C° 0 mm 3 mps 759 mmHg 96%
    13:00 -25°C° 0 mm 4 mps 759 mmHg 96%
    14:00 -26°C° 0 mm 4 mps 759 mmHg 96%
    15:00 -26°C° 0 mm 4 mps 759 mmHg 96%
    16:00 -26°C° 0 mm 4 mps 759 mmHg 96%
    17:00 -26°C° 0 mm 4 mps 759 mmHg 96%
    18:00 -26°C° 0 mm 4 mps 759 mmHg 96%
    19:00 -27°C° 0 mm 4 mps 759 mmHg 96%
    20:00 -26°C° 0 mm 4 mps 759 mmHg 95%
    21:00 -26°C° 0 mm 5 mps 758 mmHg 93%
    22:00 -26°C° 0 mm 5 mps 758 mmHg 92%
    23:00 -25°C° 0 mm 5 mps 757 mmHg 91%

    25 January, Friday

    Time Temperature Precipitation Wind Pressure Humidity
    00:00 -24°C° 0 mm 6 mps 756 mmHg 90%
    01:00 -23°C° 0 mm 6 mps 756 mmHg 89%
    02:00 -22°C° 0.2 mm 6 mps 755 mmHg 90%
    03:00 -21°C° 0.2 mm 7 mps 754 mmHg 91%
    04:00 -20°C° 0.2 mm 7 mps 753 mmHg 92%
    05:00 -19°C° 0.3 mm 7 mps 752 mmHg 92%
    06:00 -19°C° 0.3 mm 7 mps 751 mmHg 92%
    07:00 -17°C° 0.3 mm 6 mps 750 mmHg 92%
    08:00 -17°C° 0.3 mm 6 mps 750 mmHg 92%
    09:00 -17°C° 0.3 mm 6 mps 750 mmHg 92%
    10:00 -16°C° 0.3 mm 6 mps 750 mmHg 92%
    11:00 -16°C° 0.2 mm 6 mps 750 mmHg 91%
    12:00 -15°C° 0.2 mm 5 mps 750 mmHg 89%
    13:00 -15°C° 0.2 mm 5 mps 750 mmHg 88%
    14:00 -15°C° 0 mm 5 mps 750 mmHg 89%
    15:00 -16°C° 0 mm 4 mps 750 mmHg 90%
    16:00 -16°C° 0 mm 4 mps 750 mmHg 91%
    17:00 -18°C° 0 mm 4 mps 751 mmHg 93%
    18:00 -19°C° 0 mm 4 mps 751 mmHg 95%
    19:00 -19°C° 0 mm 3 mps 752 mmHg 97%
    20:00 -21°C° 0 mm 3 mps 752 mmHg 97%
    21:00 -22°C° 0 mm 3 mps 752 mmHg 98%
    22:00 -23°C° 0 mm 3 mps 753 mmHg 99%
    23:00 -24°C° 0 mm 3 mps 753 mmHg 99%

    26 January, Saturday

    Time Temperature Precipitation Wind Pressure Humidity
    00:00 -26°C° 0 mm 3 mps 753 mmHg 99%
    01:00 -27°C° 0 mm 3 mps 754 mmHg 99%
    02:00 -29°C° 0 mm 3 mps 754 mmHg 99%
    03:00 -28°C° 0 mm 2 mps 754 mmHg 99%
    04:00 -28°C° 0 mm 2 mps 755 mmHg 99%
    05:00 -29°C° 0 mm 2 mps 755 mmHg 99%
    06:00 -30°C° 0 mm 2 mps 755 mmHg 99%
    07:00 -31°C° 0 mm 2 mps 756 mmHg 99%
    08:00 -30°C° 0 mm 2 mps 756 mmHg 99%
    09:00 -30°C° 0 mm 2 mps 756 mmHg 99%
    10:00 -30°C° 0 mm 2 mps 756 mmHg 98%
    11:00 -29°C° 0 mm 2 mps 757 mmHg 98%
    12:00 -28°C° 0 mm 2 mps 757 mmHg 97%
    13:00 -27°C° 0 mm 2 mps 757 mmHg 97%
    14:00 -28°C° 0 mm 2 mps 757 mmHg 97%
    15:00 -29°C° 0 mm 2 mps 757 mmHg 98%
    16:00 -27°C° 0 mm 1 mps 757 mmHg 98%
    17:00 -29°C° 0 mm 1 mps 758 mmHg 99%
    18:00 -30°C° 0 mm 1 mps 758 mmHg 99%
    19:00 -30°C° 0 mm 0 mps 758 mmHg 100%
    20:00 -30°C° 0 mm 0 mps 759 mmHg 99%
    21:00 -31°C° 0 mm 0 mps 759 mmHg 99%
    22:00 -31°C° 0 mm 0 mps 759 mmHg 99%
    23:00 -31°C° 0 mm 0 mps 759 mmHg 99%

    27 January, Sunday

    Time Temperature Precipitation Wind Pressure Humidity
    00:00 -32°C° 0 mm 1 mps 759 mmHg 99%
    01:00 -31°C° 0 mm 1 mps 759 mmHg 99%
    02:00 -31°C° 0 mm 1 mps 759 mmHg 98%
    03:00 -34°C° 0 mm 2 mps 759 mmHg 97%
    04:00 -34°C° 0 mm 2 mps 759 mmHg 95%
    05:00 -34°C° 0 mm 3 mps 759 mmHg 95%
    06:00 -34°C° 0 mm 3 mps 759 mmHg 94%
    07:00 -33°C° 0 mm 3 mps 759 mmHg 93%
    08:00 -33°C° 0 mm 4 mps 759 mmHg 91%
    09:00 -32°C° 0 mm 4 mps 759 mmHg 90%
    10:00 -31°C° 0 mm 5 mps 758 mmHg 88%
    11:00 -29°C° 0 mm 5 mps 758 mmHg 88%
    12:00 -28°C° 0 mm 5 mps 758 mmHg 88%
    13:00 -26°C° 0 mm 5 mps 757 mmHg 88%
    14:00 -26°C° 0 mm 5 mps 757 mmHg 87%
    15:00 -25°C° 0 mm 5 mps 757 mmHg 85%
    16:00 -24°C° 0 mm 5 mps 756 mmHg 84%
    17:00 -24°C° 0 mm 5 mps 756 mmHg 84%
    18:00 -24°C° 0 mm 5 mps 756 mmHg 85%
    19:00 -25°C° 0 mm 5 mps 756 mmHg 85%
    20:00 -24°C° 0 mm 5 mps 755 mmHg 84%
    21:00 -24°C° 0 mm 5 mps 755 mmHg 83%
    22:00 -24°C° 0 mm 5 mps 755 mmHg 83%
    23:00 -24°C° 0 mm 5 mps 755 mmHg 83%
    Show more